Helicity
26 21 22 20 22 22 12 10 8 4 2 1 -1 6 22 32 33 43 45 48 48 52 69 65 69 70 75 81 92 106 79 55 39
23 24 25 23 24 19 11 9 6 4 2 0 0 11 24 31 33 44 44 55 53 48 34 32 48 60 61 67 76 89 106 99 80
24 25 23 19 20 14 9 5 6 11 14 7 7 18 19 32 29 45 45 49 43 41 40 41 42 50 54 59 71 82 95 102 104
24 20 18 14 14 9 4 3 6 10 10 20 28 43 44 40 46 51 46 58 60 47 45 42 45 41 51 62 71 76 84 95 103
28 20 17 18 17 12 10 10 8 4 3 22 36 38 51 26 32 33 44 54 62 53 47 47 48 49 45 46 52 64 72 77 86
25 19 18 15 16 6 4 3 1 10 12 13 21 32 54 39 37 32 58 56 59 78 97 96 103 84 65 49 43 56 58 75 67
18 10 8 5 10 17 8 13 6 14 15 20 22 45 62 44 50 51 86 102 98 95 81 77 91 108 115 99 86 76 87 113 120
21 24 21 19 22 21 17 15 22 26 23 26 33 49 69 60 43 60 89 99 93 90 78 74 80 98 118 127 138 149 126 105 101
32 31 28 26 24 26 26 29 33 33 24 34 39 59 74 64 50 39 65 80 82 77 80 68 74 89 113 132 143 147 128 115 99
37 36 34 31 30 32 35 36 42 37 32 33 44 66 86 57 57 16 63 72 72 74 70 70 70 75 87 114 122 124 115 100 93
49 49 45 44 37 34 40 37 41 30 32 35 38 57 83 74 67 36 51 62 64 61 63 59 66 69 78 84 89 86 98 112 96
59 54 56 52 36 37 36 35 38 32 28 39 40 53 61 53 52 56 50 42 52 54 57 43 50 65 80 92 89 71 80 104 99
65 61 58 44 43 46 45 45 42 34 28 33 27 49 62 66 63 50 44 39 35 43 51 43 48 54 55 78 84 82 69 67 75
67 63 60 52 53 54 48 40 41 40 30 26 27 41 50 51 44 43 52 48 45 39 41 59 62 63 59 67 64 63 67 64 58
75 69 65 58 57 61 52 45 46 51 49 34 34 34 45 41 29 22 49 61 62 51 53 52 46 56 60 62 67 60 54 50 50
78 68 71 72 71 62 61 60 62 60 59 46 38 40 34 53 50 48 58 48 47 44 53 52 52 50 65 66 66 64 65 54 51
80 84 78 77 65 66 69 81 63 54 65 61 63 75 61 54 47 44 42 32 46 43 42 46 56 56 56 51 65 62 64 56 54
86 82 70 68 71 78 83 87 89 73 53 78 72 94 98 82 77 69 66 67 60 44 46 42 51 62 57 72 68 64 66 60 56
77 73 75 85 86 93 84 94 95 96 103 76 89 74 86 118 131 97 82 86 69 73 59 60 56 51 77 73 56 72 63 58 61
69 79 88 91 96 103 115 120 122 110 107 105 101 101 97 96 123 126 107 93 98 94 80 79 52 52 77 88 77 83 85 70 62
Wind_Speed
52 52 52 52 53 54 54 55 55 55 55 53 52 50 50 50 49 48 49 46 43 42 42 44 46 47 48 50 50 50 47 46 45
52 52 53 53 53 54 55 55 55 54 54 52 50 49 50 49 47 47 48 47 45 42 40 40 43 45 47 49 50 50 49 47 47
51 53 53 53 54 54 55 55 54 54 54 52 50 49 49 48 46 46 47 45 43 42 42 43 44 45 46 47 47 48 49 48 48
51 52 53 53 54 54 54 54 53 52 50 50 49 50 51 46 44 46 47 45 45 45 46 46 46 46 46 46 47 47 47 47 48
50 52 52 53 52 53 52 53 53 52 49 45 49 50 51 43 45 47 48 46 47 48 47 47 48 48 47 46 46 46 44 46 47
46 48 49 49 50 47 49 49 49 50 49 48 49 47 48 42 44 46 48 47 48 49 51 52 54 54 51 48 46 46 46 47 47
45 46 48 50 50 53 49 52 50 50 49 49 49 47 47 41 44 46 47 47 49 50 50 51 51 54 54 51 50 47 46 47 48
46 48 49 50 51 51 51 51 50 50 50 50 48 48 46 40 43 45 47 46 47 49 50 51 50 49 52 51 50 50 50 51 51
46 47 48 49 49 50 49 49 49 50 50 49 48 46 46 39 42 45 46 46 47 49 51 50 50 50 49 51 51 51 51 50 51
44 46 47 48 48 49 49 50 50 51 51 49 48 47 43 36 40 43 46 46 48 49 50 51 51 50 48 50 52 52 52 52 52
42 44 46 48 48 48 49 49 50 51 50 49 48 46 43 35 37 41 42 44 46 48 50 50 50 49 48 48 49 51 52 52 53
41 43 45 47 47 48 49 49 49 51 49 50 47 45 41 38 39 40 42 43 46 48 50 51 50 48 47 47 48 50 52 53 54
40 42 44 45 47 48 48 49 49 52 49 49 43 43 42 40 41 40 40 43 47 49 51 49 46 48 48 47 48 50 52 54 55
38 40 43 44 46 48 47 46 47 52 52 47 41 40 39 38 38 39 39 43 47 48 50 49 44 46 47 48 49 51 54 55 56
36 38 41 42 45 48 49 46 47 52 55 47 42 37 38 36 36 36 37 40 46 46 47 46 43 45 47 49 50 53 56 57 56
35 36 40 43 45 47 49 47 48 54 57 48 46 40 36 36 38 37 37 41 45 43 44 46 44 45 47 48 51 55 58 57 57
34 37 40 42 43 45 48 50 49 51 56 52 47 51 44 42 41 37 39 41 46 46 46 46 44 45 45 46 49 54 59 58 57
34 36 38 41 43 46 48 50 51 54 51 52 50 53 53 54 43 40 47 48 52 53 50 50 46 44 45 45 47 53 60 60 59
34 36 39 41 43 46 47 49 51 51 54 50 52 47 47 56 58 46 52 53 59 63 52 59 55 44 45 46 47 53 60 62 60
34 37 40 42 44 46 49 51 52 51 51 53 53 52 54 49 53 64 58 64 62 61 62 67 56 51 46 46 49 54 60 63 63
Wind_Direction
25 21 18 16 19 22 23 25 27 29 29 31 33 35 29 22 29 40 33 37 34 32 27 13 2 355 346 339 334 333 328 320 317
23 21 19 19 19 21 23 25 28 30 31 33 35 33 24 26 34 40 41 48 50 47 43 35 21 7 355 345 335 331 330 328 322
26 24 23 21 21 23 25 27 31 33 34 34 35 32 21 24 35 35 34 40 42 39 35 27 21 14 6 359 351 339 330 327 323
30 27 26 26 26 27 28 30 32 33 35 35 30 23 10 21 36 31 28 31 29 26 21 18 13 10 6 3 357 352 344 333 325
33 32 31 29 31 32 32 31 30 31 33 36 21 13 10 38 31 25 22 24 20 16 17 15 12 8 4 360 355 353 352 345 333
35 32 31 31 31 35 33 32 33 32 29 25 20 20 17 30 25 21 16 15 17 15 12 9 8 5 3 1 358 353 350 345 340
32 32 30 30 31 27 32 28 30 27 22 18 15 17 14 28 20 16 12 12 11 8 7 6 3 3 4 3 359 358 354 351 349
27 27 29 30 29 29 28 27 27 22 14 11 11 6 11 23 19 16 13 11 8 7 10 11 9 8 6 4 0 354 350 345 342
24 28 29 30 30 29 27 25 23 14 7 8 7 6 9 23 20 16 13 9 6 8 9 12 11 9 7 5 1 353 346 343 340
26 27 28 29 30 27 23 21 15 6 0 4 5 5 9 25 21 18 16 12 9 10 10 9 9 10 11 8 2 357 348 336 333
26 25 25 25 26 24 21 18 14 1 360 3 3 6 11 30 27 20 16 13 10 10 9 9 8 8 7 7 7 0 351 341 332
24 24 23 22 23 22 19 17 13 359 357 356 5 13 19 23 20 18 17 14 9 5 3 2 4 6 6 6 4 2 354 342 332
22 21 20 20 20 19 18 16 14 359 356 355 5 8 8 8 6 10 10 7 4 2 360 2 5 4 3 4 3 359 354 345 334
20 18 17 17 17 15 16 16 14 2 353 355 3 7 8 8 7 5 6 4 2 1 0 1 5 3 0 359 358 356 349 344 337
15 15 14 14 12 11 11 11 8 359 350 352 355 2 6 9 10 9 7 4 1 2 2 2 1 358 356 353 352 351 348 342 339
11 12 9 7 7 7 5 7 2 354 349 354 351 351 356 359 358 359 0 358 357 360 0 360 358 355 352 349 346 342 341 341 337
7 5 2 2 3 2 2 0 357 353 349 349 347 340 344 348 351 355 356 356 352 352 351 351 351 350 349 346 344 340 335 336 335
0 359 359 359 360 355 356 354 352 346 348 350 346 336 333 338 344 344 344 343 344 343 340 341 342 341 342 341 341 337 333 329 330
355 354 354 354 354 352 351 351 347 345 342 343 344 343 339 331 328 336 337 336 335 334 335 333 332 333 333 333 334 332 329 326 324
349 349 349 349 349 347 346 344 342 343 340 339 338 337 334 332 326 322 326 327 330 331 330 326 326 326 325 326 326 326 326 323 319